This demonstration page uses our WeatherBlox Daily Observations layout. Learn more.

Left ArrowRight Arrow

38.20091, -84.87328

Hourly Observations for August 25, 2017

Temp ( °F °C ) Dew Point ( °F °C ) Humidity (%) Winds ( mph kmh ) Pressure ( in mb ) Visibility ( mi km ) Precip ( " mm )
12:53 am 00:53 Clear 60 15.6 54 12.2 80 80 NNW 3 6 30.08 1019 10 16 0.00 0.00
1:53 am 01:53 Clear 58 14.4 53 11.7 84 84 NNW 3 6 30.08 1019 10 16 0.00 0.00
2:53 am 02:53 Clear 57 13.9 53 11.7 87 87 Calm 30.09 1019 10 16 0.00 0.00
3:53 am 03:53 Clear 58 14.4 53 11.7 84 84 Calm 30.09 1019 10 16 0.00 0.00
4:53 am 04:53 Clear 56 13.3 52 11.1 87 87 Calm 30.10 1019 10 16 0.00 0.00
5:53 am 05:53 Clear 55 12.8 51 10.6 87 87 Calm 30.11 1020 10 16 0.00 0.00
6:53 am 06:53 Clear 54 12.2 50 10 87 87 Calm 30.14 1021 10 16 0.00 0.00
7:53 am 07:53 Sunny 56 13.3 51 10.6 84 84 N 3 6 30.15 1021 10 16 0.00 0.00
8:53 am 08:53 Sunny 61 16.1 54 12.2 78 78 ENE 6 9 30.16 1022 10 16 0.00 0.00
9:53 am 09:53 Sunny 65 18.3 54 12.2 68 68 E 7 11 30.16 1021 10 16 0.00 0.00
10:53 am 10:53 Sunny 71 21.7 54 12.2 55 55 E 8 13 30.18 1022 10 16 0.00 0.00
11:53 am 11:53 Sunny 74 23.3 54 12.2 50 50 E 7 11 30.18 1022 10 16 0.00 0.00
12:53 pm 12:53 Mostly Sunny 77 25 53 11.7 43 43 VRB 3 6 30.18 1022 10 16 0.00 0.00
1:53 pm 13:53 Sunny 78 25.6 53 11.7 42 42 NE 7 11 30.17 1022 10 16 0.00 0.00
2:53 pm 14:53 Mostly Cloudy 78 25.6 52 11.1 40 40 NE 6 9 30.16 1022 10 16 0.00 0.00
3:53 pm 15:53 Mostly Sunny 78 25.6 52 11.1 40 40 VRB 5 7 30.15 1021 10 16 0.00 0.00
4:53 pm 16:53 Sunny 80 26.7 51 10.6 37 37 N 7 11 30.14 1021 10 16 0.00 0.00
5:53 pm 17:53 Sunny 77 25 51 10.6 40 40 ENE 5 7 30.14 1021 10 16 0.00 0.00
6:53 pm 18:53 Sunny 77 25 52 11.1 42 42 NE 8 13 30.16 1021 10 16 0.00 0.00
7:53 pm 19:53 Sunny 75 23.9 51 10.6 43 43 NE 5 7 30.16 1022 10 16 0.00 0.00
8:53 pm 20:53 Clear 72 22.2 52 11.1 50 50 Calm 30.18 1022 10 16 0.00 0.00
9:53 pm 21:53 Clear 69 20.6 52 11.1 55 55 NE 6 9 30.19 1022 10 16 0.00 0.00
10:53 pm 22:53 Clear 67 19.4 53 11.7 61 61 ENE 5 7 30.19 1022 10 16 0.00 0.00
11:53 pm 23:53 Clear 65 18.3 52 11.1 63 63 NE 3 6 30.19 1022 10 16 0.00 0.00

Powered by AerisWeather